WetterOnline ( https://www.wetteronline.de )

Wetter aktuell Dingolfing

Aktuelles Wetter: Gottfrieding (350m)

6-stündlich | Neueste Meldungen
Ortszeit Temperatur Wetter
Do, 24.09. 2:00 12.1° C Nebel
Mi, 23.09. 20:00 15.6° C wolkenlos
Mi, 23.09. 14:00 16.9° C leichter Regen
Mi, 23.09. 8:00 15.9° C leichter Regen
Mi, 23.09. 2:00 12.9° C bedeckt
Di, 22.09. 20:00 17.6° C wolkig
Di, 22.09. 14:00 23.2° C wolkenlos
Di, 22.09. 8:00 10.2° C wolkenlos
Ortszeit Temperatur Wetter
Do, 24.09. 4:10 11.3° C Nebel
Do, 24.09. 4:00 11.1° C Nebel
Do, 24.09. 3:50 11.1° C Nebel
Do, 24.09. 3:40 11.3° C Nebel
Do, 24.09. 3:30 10.8° C Nebel
Do, 24.09. 3:20 10.8° C Nebel
Do, 24.09. 3:00 11.1° C Nebel
Do, 24.09. 2:30 11.6° C Nebel
Do, 24.09. 2:00 12.1° C Nebel
Do, 24.09. 1:30 12.0° C Nebel
Do, 24.09. 1:00 12.8° C Nebel
Ortszeit Relative Feuchte Sichtweite
Do, 24.09. 2:00 100% 100 m
Mi, 23.09. 20:00 99% 8 km
Mi, 23.09. 14:00 94% 15 km
Mi, 23.09. 8:00 95% 11 km
Mi, 23.09. 2:00 98% 16 km
Di, 22.09. 20:00 87% 30 km
Di, 22.09. 14:00 56% 30 km
Di, 22.09. 8:00 97% 9 km
Ortszeit Relative Feuchte Sichtweite
Do, 24.09. 4:10 100% -
Do, 24.09. 4:00 100% 100 m
Do, 24.09. 3:50 100% -
Do, 24.09. 3:40 100% -
Do, 24.09. 3:30 100% 100 m
Do, 24.09. 3:20 100% -
Do, 24.09. 3:00 100% 0.2 km
Do, 24.09. 2:30 100% 100 m
Do, 24.09. 2:00 100% 100 m
Do, 24.09. 1:30 100% <100 m
Do, 24.09. 1:00 100% <100 m
Ortszeit Niederschlagsmenge Niederschlagsart
Do, 24.09. 2:00 0.1 l/m2 in 6 Std. -
Mi, 23.09. 20:00 22 l/m2 in 12 Std. Regen
Mi, 23.09. 14:00 22 l/m2 in 6 Std. Regen
Mi, 23.09. 8:00 0.3 l/m2 in 12 Std. Regen
Mi, 23.09. 2:00 0.0 l/m2 in 6 Std. -
Di, 22.09. 20:00 0.1 l/m2 in 12 Std. Sprühregen
Di, 22.09. 14:00 0.0 l/m2 in 6 Std. -
Di, 22.09. 8:00 0.0 l/m2 in 12 Std. -
Ortszeit Niederschlagsmenge Niederschlagsart
Do, 24.09. 4:10 keine Meldung -
Do, 24.09. 4:00 0.1 l/m2 in 1 Std. -
Do, 24.09. 3:50 keine Meldung -
Do, 24.09. 3:40 keine Meldung -
Do, 24.09. 3:30 0.1 l/m2 in 1 Std. -
Do, 24.09. 3:20 keine Meldung -
Do, 24.09. 3:00 0.1 l/m2 in 1 Std. -
Do, 24.09. 2:30 0.1 l/m2 in 1 Std. -
Do, 24.09. 2:00 0.1 l/m2 in 1 Std. -
Do, 24.09. 1:30 0.0 l/m2 in 1 Std. -
Do, 24.09. 1:00 0.0 l/m2 in 1 Std. -
Ortszeit Stärke Spitze Richtung
km/h Bft. km/h Grad Sektor
Do, 24.09. 2:00 0 0 7 - -
Mi, 23.09. 20:00 4 1 22 150° SO
Mi, 23.09. 14:00 13 3 22 250° W
Mi, 23.09. 8:00 11 2 19 240° SW
Mi, 23.09. 2:00 4 1 11 230° SW
Di, 22.09. 20:00 2 1 15 110° O
Di, 22.09. 14:00 4 1 14 50° NO
Di, 22.09. 8:00 2 1 7 330° NW
Ortszeit Stärke Spitze Richtung
km/h Bft. km/h Grad Sektor
Do, 24.09. 4:10 4 1 - 280° W
Do, 24.09. 4:00 2 1 6 280° W
Do, 24.09. 3:50 2 1 - 280° W
Do, 24.09. 3:40 4 1 - 80° O
Do, 24.09. 3:30 4 1 4 80° O
Do, 24.09. 3:20 4 1 - 80° O
Do, 24.09. 3:00 4 1 4 40° NO
Do, 24.09. 2:30 0 0 4 - -
Do, 24.09. 2:00 0 0 4 - -
Do, 24.09. 1:30 0 0 4 - -
Do, 24.09. 1:00 4 1 4 90° O
Ortszeit Untergrenze Bedeckung Gattung
total tief tief mittel hoch
Do, 24.09. 2:00 <30 m 8/8 0/8 - - -
Mi, 23.09. 20:00 - 0/8 0/8 - - -
Mi, 23.09. 14:00 270 m 7/8 8/8 - - -
Mi, 23.09. 8:00 570 m 8/8 8/8 - - -
Mi, 23.09. 2:00 3900 m 8/8 8/8 - - -
Di, 22.09. 20:00 9000 m 8/8 0/8 - - -
Di, 22.09. 14:00 - 0/8 0/8 - - -
Di, 22.09. 8:00 - 0/8 0/8 - - -
Ortszeit Bedeckungsgrad in Achtel und Wolkenuntergrenze
Do, 24.09. 4:10 8(<30m) 8(8100m)
Do, 24.09. 4:00 8(<30m)
Do, 24.09. 3:50 8(<30m)
Do, 24.09. 3:40 8(<30m)
Do, 24.09. 3:30 8(<30m) 8(8700m)
Do, 24.09. 3:20 8(<30m) 8(8700m)
Do, 24.09. 3:00 8(<30m)
Do, 24.09. 2:30 8(<30m)
Do, 24.09. 2:00 8(<30m)
Do, 24.09. 1:30 8(<30m)
Do, 24.09. 1:00 7(<30m)
Ortszeit Luftdruck NN (hPa) Tendenz (hPa in 3 Std.)
Do, 24.09. 2:00 1009 - 0,3
Mi, 23.09. 20:00 1008 0,0
Mi, 23.09. 14:00 1009 - 0,2
Mi, 23.09. 8:00 1008 + 0,4
Mi, 23.09. 2:00 1009 - 0,5
Di, 22.09. 20:00 1009 - 1,0
Di, 22.09. 14:00 1011 - 1,6
Di, 22.09. 8:00 1015 + 0,1
Ortszeit Luftdruck NN (hPa) Tendenz (hPa in 3 Std.)
Do, 24.09. 4:10 1009 keine Meldung
Do, 24.09. 4:00 1009 + 0,1
Do, 24.09. 3:50 1009 keine Meldung
Do, 24.09. 3:40 1009 keine Meldung
Do, 24.09. 3:30 1009 - 0,4
Do, 24.09. 3:20 1009 keine Meldung
Do, 24.09. 3:00 1009 - 0,2
Do, 24.09. 2:30 1009 - 0,4
Do, 24.09. 2:00 1009 - 0,3
Do, 24.09. 1:30 1009 - 0,1
Do, 24.09. 1:00 1009 - 0,2
Ortszeit Schneehöhe (cm)
Do, 24.09. 2:00 -
Mi, 23.09. 20:00 -
Mi, 23.09. 14:00 -
Mi, 23.09. 8:00 -
Mi, 23.09. 2:00 -
Di, 22.09. 20:00 -
Di, 22.09. 14:00 -
Di, 22.09. 8:00 -
Ortszeit Schneehöhe (cm)
Do, 24.09. 4:10 -
Do, 24.09. 4:00 -
Do, 24.09. 3:50 -
Do, 24.09. 3:40 -
Do, 24.09. 3:30 -
Do, 24.09. 3:20 -
Do, 24.09. 3:00 -
Do, 24.09. 2:30 -
Do, 24.09. 2:00 -
Do, 24.09. 1:30 -
Do, 24.09. 1:00 -
Link zu dieser Seite / Seite empfehlen

Das Wetter in ...